Morris, MN

1:02 PM CDT on March 27, 2017 (GMT -0500)
Morris Municipal

Weather History for KMOX - September, 2012

Change the Weather History Date:

Saturday, September 29, 2012

  Actual Average Record
Temperature  
Mean Temperature 64 °F -  
Max Temperature 84 °F 62 °F 84 °F (2000)
Min Temperature 44 °F 38 °F 30 °F (1996)
Degree Days  
Heating Degree Days 1    
Growing Degree Days 14 (Base 50)    
Moisture  
Dew Point 35 °F    
Average Humidity 39    
Maximum Humidity 71    
Minimum Humidity 16    
Precipitation  
Precipitation 0.00 in - - ()
Sea Level Pressure  
Sea Level Pressure 30.07 in    
Wind  
Wind Speed 3 mph (SSE)    
Max Wind Speed 9 mph    
Max Gust Speed -    
Visibility 7 miles    
Events      
Averages and records for this station are not official NWS values.
T = Trace of Precipitation, MM = Missing Value Source: NWS Daily Summary

Daily Weather History Graph

Daily Weather History Graph

Search for Another Location

Airport or City:

Trip Planner

Search our weather history database for the weather conditions in past years. The results will help you decide how hot, cold, wet, or windy it might be!

Date:

Astronomy

Sep. 29, 2012 Rise Set
Actual Time 7:20 AM CDT 7:06 PM CDT
Civil Twilight 6:50 AM CDT 7:36 PM CDT
Nautical Twilight 6:16 AM CDT 8:10 PM CDT
Astronomical Twilight 5:41 AM CDT 8:45 PM CDT
Moon 6:37 PM CDT (9/29) 6:53 AM CDT (9/29)
Length of Visible Light 12h 45m
Length of Day
11h 46m
Full, 100% of the Moon is Illuminated
Sep 29
Full
Sep 29
Full
Oct 8
Last Quarter
Oct 15
New
Oct 21
First Quarter

Hourly Weather History & Observations

Time (CDT) Temp. Windchill Dew Point Humidity Pressure Visibility Wind Dir Wind Speed Gust Speed Precip Events Conditions
12:11 AM 57.2 °F - 35.6 °F 44% 30.10 in 10.0 mi SSW 4.6 mph - N/A   Clear
12:31 AM 55.4 °F - 35.6 °F 47% 30.10 in 10.0 mi SW 3.5 mph - N/A   Clear
12:51 AM 55.4 °F - 33.8 °F 44% 30.10 in 10.0 mi SW 3.5 mph - N/A   Clear
1:10 AM 53.6 °F - 33.8 °F 47% 30.09 in 7.0 mi Calm Calm - N/A   Clear
1:31 AM 55.4 °F - 33.8 °F 44% 30.10 in 10.0 mi Calm Calm - N/A   Clear
1:50 AM 53.6 °F - 33.8 °F 47% 30.10 in 10.0 mi Calm Calm - N/A   Clear
2:11 AM 51.8 °F - 33.8 °F 50% 30.11 in 10.0 mi Calm Calm - N/A   Clear
2:31 AM 53.6 °F - 35.6 °F 51% 30.11 in 7.0 mi WSW 4.6 mph - N/A   Clear
2:51 AM 51.8 °F - 32.0 °F 47% 30.10 in 10.0 mi Calm Calm - N/A   Clear
3:11 AM 51.8 °F - 32.0 °F 47% 3.01 in 10.0 mi Calm Calm - N/A   Clear
3:30 AM 51.8 °F - 33.8 °F 50% 30.10 in 10.0 mi Calm Calm - N/A   Clear
3:37 AM 51.8 °F - 35.6 °F 54% 30.10 in 10.0 mi North - - N/A   Clear
4:11 AM 51.8 °F - 35.6 °F 54% 30.10 in 7.0 mi Calm Calm - N/A   Clear
4:31 AM 48.2 °F - 33.8 °F 58% 30.10 in 10.0 mi Calm Calm - N/A   Clear
4:51 AM 46.4 °F - 33.8 °F 62% 30.10 in 10.0 mi Calm Calm - N/A   Clear
5:10 AM 48.2 °F - 33.8 °F 58% 30.10 in 10.0 mi Calm Calm - N/A   Clear
5:31 AM 48.2 °F - 33.8 °F 58% 30.10 in 7.0 mi Calm Calm - N/A   Clear
5:50 AM 44.6 °F 43.1 °F 33.8 °F 66% 30.11 in 10.0 mi East 3.5 mph - N/A   Clear
6:11 AM 46.4 °F - 35.6 °F 66% 30.11 in 10.0 mi Calm Calm - N/A   Clear
6:31 AM 44.6 °F 43.1 °F 35.6 °F 71% 30.11 in 10.0 mi East 3.5 mph - N/A   Clear
6:51 AM 44.6 °F 42.2 °F 35.6 °F 71% 30.12 in 10.0 mi East 4.6 mph - N/A   Clear
7:11 AM 44.6 °F 43.1 °F 35.6 °F 71% 30.12 in 10.0 mi ESE 3.5 mph - N/A   Clear
7:30 AM 44.6 °F - 35.6 °F 71% 30.12 in 10.0 mi Calm Calm - N/A   Clear
7:51 AM 44.6 °F 42.2 °F 35.6 °F 71% 30.13 in 10.0 mi SE 4.6 mph - N/A   Clear
8:10 AM 44.6 °F 43.1 °F 35.6 °F 71% 30.12 in 10.0 mi SE 3.5 mph - N/A   Clear
8:31 AM 50.0 °F - 37.4 °F 62% 30.12 in 7.0 mi SE 3.5 mph - N/A   Clear
8:50 AM 53.6 °F - 37.4 °F 54% 30.12 in 7.0 mi Calm Calm - N/A   Clear
9:11 AM 57.2 °F - 39.2 °F 51% 30.12 in 7.0 mi Calm Calm - N/A   Clear
9:50 AM 64.4 °F - 37.4 °F 37% 30.12 in 10.0 mi SE 4.6 mph - N/A   Clear
10:11 AM 66.2 °F - 37.4 °F 35% 30.12 in 10.0 mi ESE 4.6 mph - N/A   Clear
10:30 AM 69.8 °F - 39.2 °F 33% 30.12 in 7.0 mi SSE 4.6 mph - N/A   Clear
10:51 AM 71.6 °F - 37.4 °F 29% 30.12 in 10.0 mi South 3.5 mph - N/A   Clear
11:11 AM 73.4 °F - 37.4 °F 27% 30.12 in 10.0 mi Calm Calm - N/A   Clear
11:31 AM 75.2 °F - 35.6 °F 24% 30.11 in 10.0 mi SSE 3.5 mph - N/A   Clear
11:51 AM 77.0 °F - 32.0 °F 19% 30.11 in 7.0 mi Calm Calm - N/A   Clear
12:31 PM 80.6 °F - 30.2 °F 16% 30.09 in 4.0 mi Calm Calm - N/A   Haze
12:50 PM 80.6 °F - 30.2 °F 16% 30.09 in 1.2 mi SSW 3.5 mph - N/A   Haze
1:11 PM 82.4 °F - 33.8 °F 17% 30.08 in 5.0 mi South 3.5 mph - N/A   Haze
1:31 PM 82.4 °F - 33.8 °F 17% 30.07 in 1.8 mi SW 4.6 mph - N/A   Haze
1:50 PM 82.4 °F - 33.8 °F 17% 30.06 in 3.0 mi South 6.9 mph - N/A   Haze
2:10 PM 84.2 °F - 35.6 °F 18% 30.05 in 1.5 mi SSW 5.8 mph - N/A   Haze
2:30 PM 84.2 °F - 35.6 °F 18% 30.05 in 3.0 mi South 9.2 mph - N/A   Haze
2:51 PM 84.2 °F - 35.6 °F 18% 30.04 in 3.0 mi SSW 6.9 mph - N/A   Haze
3:10 PM 84.2 °F - 35.6 °F 18% 30.03 in 2.5 mi South 6.9 mph - N/A   Haze
3:31 PM 84.2 °F - 35.6 °F 18% 30.03 in 2.0 mi SSE 5.8 mph - N/A   Haze
3:50 PM 84.2 °F - 35.6 °F 18% 30.02 in 1.8 mi SSW 6.9 mph - N/A   Haze
4:11 PM 84.2 °F - 35.6 °F 18% 30.01 in 2.0 mi SSW 8.1 mph - N/A   Haze
4:30 PM 84.2 °F - 35.6 °F 18% 30.01 in 1.0 mi South 4.6 mph - N/A   Haze
5:11 PM 84.2 °F - 35.6 °F 18% 30.00 in 0.2 mi SSW 5.8 mph - N/A   Haze
5:30 PM 82.4 °F - 35.6 °F 19% 30.00 in 0.2 mi SSW 5.8 mph - N/A   Haze
5:51 PM 82.4 °F - 35.6 °F 19% 30.00 in 0.5 mi South 5.8 mph - N/A   Haze
6:10 PM 78.8 °F - 37.4 °F 23% 30.00 in 0.8 mi South 4.6 mph - N/A   Haze
6:31 PM 77.0 °F - 35.6 °F 22% 29.99 in 7.0 mi SSE 3.5 mph - N/A   Clear
6:50 PM 75.2 °F - 35.6 °F 24% 29.99 in 7.0 mi SSE 5.8 mph - N/A   Clear
7:11 PM 73.4 °F - 37.4 °F 27% 30.00 in 10.0 mi SE 5.8 mph - N/A   Clear
7:31 PM 69.8 °F - 33.8 °F 27% 30.00 in 10.0 mi ESE 4.6 mph - N/A   Clear
7:50 PM 66.2 °F - 32.0 °F 28% 30.00 in 10.0 mi SE 5.8 mph - N/A   Clear
8:11 PM 66.2 °F - 33.8 °F 30% 30.00 in 10.0 mi SE 5.8 mph - N/A   Clear
8:30 PM 64.4 °F - 33.8 °F 32% 30.00 in 10.0 mi SE 5.8 mph - N/A   Clear
8:51 PM 64.4 °F - 35.6 °F 34% 30.00 in 10.0 mi SE 4.6 mph - N/A   Clear
9:11 PM 62.6 °F - 33.8 °F 34% 30.01 in 10.0 mi SE 5.8 mph - N/A   Clear
9:31 PM 60.8 °F - 35.6 °F 39% 30.01 in 10.0 mi SE 5.8 mph - N/A   Clear
9:51 PM 60.8 °F - 35.6 °F 39% 30.01 in 7.0 mi SE 5.8 mph - N/A   Clear
10:10 PM 60.8 °F - 33.8 °F 36% 30.01 in 7.0 mi SSE 6.9 mph - N/A   Clear
10:31 PM 59.0 °F - 35.6 °F 42% 30.01 in 7.0 mi SSE 8.1 mph - N/A   Clear
10:50 PM 59.0 °F - 35.6 °F 42% 30.01 in 7.0 mi SSE 6.9 mph - N/A   Clear
11:11 PM 57.2 °F - 35.6 °F 44% 30.01 in 7.0 mi SSE 6.9 mph - N/A   Clear
11:31 PM 57.2 °F - 35.6 °F 44% 30.01 in 7.0 mi SSE 5.8 mph - N/A   Clear
11:51 PM 53.6 °F - 37.4 °F 54% 30.01 in 3.0 mi South 4.6 mph - N/A   Haze